When you browse on this site, cookies collect data to enhance your experience and personalize the content and advertising you see.
Visit our Privacy Policy to learn more. By continuing to use the site, you agree to this use of cookies and data.
  • In Hungary
  • List of Countries
  • For 7 days
  • Water Temperature
  • Satellite Maps
  • Weather Map
  • News
  • Weather Widgets
  • user-avatar
    Login

    Hourly Weather Chattanooga

    Today, 20 March, Wednesday

    Time Temperature Precipitation Wind Pressure Humidity
    00:00 +4°C° 0 mm 0 mps 750 mmHg 60%
    01:00 +4°C° 0 mm 0 mps 750 mmHg 61%
    02:00 +4°C° 0 mm 0 mps 750 mmHg 63%
    03:00 +3°C° 0 mm 0 mps 750 mmHg 64%
    04:00 +3°C° 0 mm 0 mps 750 mmHg 65%
    05:00 +3°C° 0 mm 0 mps 750 mmHg 66%
    06:00 +3°C° 0 mm 0 mps 750 mmHg 67%
    07:00 +6°C° 0 mm 1 mps 750 mmHg 59%
    08:00 +9°C° 0 mm 1 mps 750 mmHg 51%
    09:00 +12°C° 0 mm 1 mps 749 mmHg 42%
    10:00 +14°C° 0 mm 1 mps 749 mmHg 39%
    11:00 +16°C° 0 mm 2 mps 748 mmHg 35%
    12:00 +17°C° 0 mm 2 mps 748 mmHg 32%
    13:00 +17°C° 0 mm 2 mps 747 mmHg 33%
    14:00 +17°C° 0 mm 2 mps 746 mmHg 33%
    15:00 +17°C° 0 mm 2 mps 745 mmHg 34%
    16:00 +15°C° 0 mm 2 mps 745 mmHg 42%
    17:00 +13°C° 0 mm 2 mps 745 mmHg 50%
    18:00 +11°C° 0 mm 1 mps 744 mmHg 58%
    19:00 +11°C° 0 mm 1 mps 744 mmHg 60%
    20:00 +10°C° 0 mm 1 mps 744 mmHg 62%
    21:00 +10°C° 0 mm 1 mps 745 mmHg 64%
    22:00 +10°C° 0 mm 1 mps 744 mmHg 63%
    23:00 +9°C° 0 mm 1 mps 744 mmHg 63%

    Tomorrow, 21 March, Thursday

    Time Temperature Precipitation Wind Pressure Humidity
    00:00 +9°C° 0 mm 1 mps 744 mmHg 62%
    01:00 +9°C° 0 mm 1 mps 743 mmHg 65%
    02:00 +9°C° 0 mm 1 mps 743 mmHg 67%
    03:00 +8°C° 0 mm 1 mps 742 mmHg 69%
    04:00 +8°C° 0.2 mm 1 mps 742 mmHg 76%
    05:00 +8°C° 0.2 mm 1 mps 742 mmHg 82%
    06:00 +8°C° 0.2 mm 1 mps 742 mmHg 89%
    07:00 +8°C° 0 mm 2 mps 742 mmHg 84%
    08:00 +9°C° 0 mm 3 mps 742 mmHg 79%
    09:00 +10°C° 0 mm 3 mps 742 mmHg 74%
    10:00 +11°C° 0.1 mm 4 mps 742 mmHg 68%
    11:00 +12°C° 0.1 mm 4 mps 742 mmHg 63%
    12:00 +13°C° 0.1 mm 5 mps 742 mmHg 57%
    13:00 +13°C° 0.1 mm 5 mps 742 mmHg 54%
    14:00 +14°C° 0.1 mm 5 mps 741 mmHg 51%
    15:00 +14°C° 0.1 mm 5 mps 741 mmHg 48%
    16:00 +13°C° 0 mm 5 mps 742 mmHg 54%
    17:00 +11°C° 0 mm 4 mps 742 mmHg 61%
    18:00 +9°C° 0 mm 3 mps 742 mmHg 67%
    19:00 +8°C° 0 mm 3 mps 743 mmHg 72%
    20:00 +7°C° 0 mm 3 mps 744 mmHg 76%
    21:00 +5°C° 0 mm 2 mps 745 mmHg 80%
    22:00 +5°C° 0 mm 2 mps 745 mmHg 83%
    23:00 +4°C° 0 mm 2 mps 745 mmHg 85%

    Day after tomorrow, 22 March, Friday

    Time Temperature Precipitation Wind Pressure Humidity
    00:00 +4°C° 0 mm 1 mps 745 mmHg 88%
    01:00 +4°C° 0 mm 1 mps 745 mmHg 89%
    02:00 +4°C° 0 mm 1 mps 745 mmHg 90%
    03:00 +3°C° 0 mm 1 mps 744 mmHg 92%
    04:00 +3°C° 0 mm 1 mps 744 mmHg 92%
    05:00 +3°C° 0 mm 1 mps 744 mmHg 93%
    06:00 +3°C° 0 mm 1 mps 745 mmHg 94%
    07:00 +6°C° 0 mm 1 mps 745 mmHg 82%
    08:00 +7°C° 0 mm 2 mps 745 mmHg 71%
    09:00 +10°C° 0 mm 3 mps 745 mmHg 60%
    10:00 +12°C° 0 mm 3 mps 745 mmHg 54%
    11:00 +14°C° 0 mm 4 mps 745 mmHg 49%
    12:00 +17°C° 0 mm 4 mps 744 mmHg 44%
    13:00 +16°C° 0 mm 5 mps 744 mmHg 43%
    14:00 +16°C° 0 mm 5 mps 744 mmHg 43%
    15:00 +17°C° 0 mm 5 mps 743 mmHg 42%
    16:00 +15°C° 0 mm 4 mps 744 mmHg 50%
    17:00 +13°C° 0 mm 3 mps 744 mmHg 57%
    18:00 +12°C° 0 mm 2 mps 744 mmHg 65%
    19:00 +10°C° 0 mm 2 mps 745 mmHg 70%
    20:00 +8°C° 0 mm 2 mps 746 mmHg 75%
    21:00 +7°C° 0 mm 2 mps 746 mmHg 80%
    22:00 +6°C° 0 mm 2 mps 747 mmHg 81%
    23:00 +5°C° 0 mm 2 mps 747 mmHg 81%

    23 March, Saturday

    Time Temperature Precipitation Wind Pressure Humidity
    00:00 +5°C° 0 mm 2 mps 747 mmHg 82%
    01:00 +4°C° 0 mm 2 mps 747 mmHg 83%
    02:00 +4°C° 0 mm 2 mps 747 mmHg 84%
    03:00 +3°C° 0 mm 2 mps 747 mmHg 84%
    04:00 +2°C° 0 mm 2 mps 748 mmHg 84%
    05:00 +2°C° 0 mm 2 mps 748 mmHg 83%
    06:00 +2°C° 0 mm 1 mps 749 mmHg 82%
    07:00 +4°C° 0 mm 2 mps 749 mmHg 69%
    08:00 +6°C° 0 mm 2 mps 750 mmHg 57%
    09:00 +8°C° 0 mm 3 mps 750 mmHg 45%
    10:00 +10°C° 0 mm 3 mps 750 mmHg 40%
    11:00 +13°C° 0 mm 2 mps 750 mmHg 35%
    12:00 +15°C° 0 mm 2 mps 749 mmHg 30%
    13:00 +16°C° 0 mm 2 mps 749 mmHg 30%
    14:00 +17°C° 0 mm 2 mps 748 mmHg 29%
    15:00 +17°C° 0 mm 2 mps 748 mmHg 29%
    16:00 +15°C° 0 mm 1 mps 748 mmHg 36%
    17:00 +13°C° 0 mm 1 mps 748 mmHg 43%
    18:00 +10°C° 0 mm 1 mps 749 mmHg 50%
    19:00 +9°C° 0 mm 1 mps 749 mmHg 53%
    20:00 +8°C° 0 mm 1 mps 749 mmHg 55%
    21:00 +7°C° 0 mm 1 mps 750 mmHg 57%
    22:00 +7°C° 0 mm 1 mps 749 mmHg 58%
    23:00 +7°C° 0 mm 1 mps 749 mmHg 58%

    24 March, Sunday

    Time Temperature Precipitation Wind Pressure Humidity
    00:00 +6°C° 0 mm 1 mps 749 mmHg 59%
    01:00 +6°C° 0 mm 1 mps 749 mmHg 60%
    02:00 +5°C° 0 mm 1 mps 749 mmHg 61%
    03:00 +5°C° 0 mm 1 mps 749 mmHg 61%
    04:00 +5°C° 0 mm 1 mps 749 mmHg 61%
    05:00 +4°C° 0 mm 1 mps 749 mmHg 62%
    06:00 +4°C° 0 mm 1 mps 749 mmHg 62%
    07:00 +7°C° 0 mm 1 mps 749 mmHg 56%
    08:00 +10°C° 0 mm 1 mps 749 mmHg 49%
    09:00 +14°C° 0 mm 1 mps 749 mmHg 43%
    10:00 +15°C° 0 mm 2 mps 749 mmHg 41%
    11:00 +17°C° 0 mm 2 mps 748 mmHg 39%
    12:00 +19°C° 0 mm 3 mps 748 mmHg 38%
    13:00 +19°C° 0 mm 3 mps 747 mmHg 38%
    14:00 +20°C° 0 mm 2 mps 747 mmHg 38%
    15:00 +20°C° 0 mm 2 mps 746 mmHg 38%
    16:00 +18°C° 0 mm 2 mps 746 mmHg 47%
    17:00 +18°C° 0 mm 1 mps 746 mmHg 55%
    18:00 +15°C° 0 mm 1 mps 746 mmHg 64%
    19:00 +14°C° 0 mm 1 mps 746 mmHg 68%
    20:00 +13°C° 0 mm 1 mps 745 mmHg 72%
    21:00 +13°C° 0 mm 1 mps 745 mmHg 76%
    22:00 +12°C° 0 mm 1 mps 745 mmHg 77%
    23:00 +12°C° 0 mm 1 mps 744 mmHg 79%

    25 March, Monday

    Time Temperature Precipitation Wind Pressure Humidity
    00:00 +12°C° 0 mm 1 mps 744 mmHg 80%
    01:00 +12°C° 0 mm 1 mps 743 mmHg 80%
    02:00 +12°C° 0 mm 1 mps 743 mmHg 79%
    03:00 +13°C° 0 mm 1 mps 742 mmHg 79%
    04:00 +12°C° 0 mm 1 mps 742 mmHg 80%
    05:00 +12°C° 0 mm 2 mps 742 mmHg 82%
    06:00 +12°C° 0 mm 2 mps 742 mmHg 83%
    07:00 +12°C° 0.9 mm 2 mps 742 mmHg 86%
    08:00 +12°C° 0.9 mm 3 mps 741 mmHg 89%
    09:00 +13°C° 0.9 mm 3 mps 741 mmHg 92%
    10:00 +14°C° 1.3 mm 3 mps 741 mmHg 92%
    11:00 +14°C° 1.3 mm 3 mps 740 mmHg 92%
    12:00 +14°C° 1.3 mm 3 mps 740 mmHg 92%
    13:00 +15°C° 0.5 mm 4 mps 739 mmHg 91%
    14:00 +15°C° 0.5 mm 4 mps 739 mmHg 90%
    15:00 +15°C° 0.5 mm 4 mps 738 mmHg 89%
    16:00 +15°C° 0.2 mm 4 mps 738 mmHg 88%
    17:00 +15°C° 0.2 mm 4 mps 738 mmHg 87%
    18:00 +14°C° 0.2 mm 3 mps 739 mmHg 86%
    19:00 +13°C° 0 mm 3 mps 739 mmHg 87%
    20:00 +13°C° 0 mm 3 mps 740 mmHg 88%
    21:00 +12°C° 0 mm 3 mps 741 mmHg 89%
    22:00 +11°C° 0 mm 4 mps 741 mmHg 88%
    23:00 +8°C° 0 mm 4 mps 742 mmHg 86%
    Show more